This is the latest recevied weather packets stored in our database for station/object VE3VGJ. If no packets are shown the sender has not sent any weather packets the latest 10 day(s).
| Time | Temp. | Humidity | Pressure | Rain* | Wind** | Luminosity | Snow |
|---|---|---|---|---|---|---|---|
| 1778103627 | 7.78° C | 75% | 1010.5 hPa | 0 mm | - | 119 W/m² | - |
| 1778103325 | 7.78° C | 75% | 1010.4 hPa | 0 mm | - | 65 W/m² | - |
| 1778103022 | 7.78° C | 76% | 1010.4 hPa | 0 mm | - | 90 W/m² | - |
| 1778102718 | 7.22° C | 77% | 1010.4 hPa | 0 mm | - | 82 W/m² | - |
| 1778102413 | 7.22° C | 77% | 1010.4 hPa | 0 mm | - | 60 W/m² | - |
| 1778102109 | 7.22° C | 77% | 1010.6 hPa | 0 mm | - | 47 W/m² | - |
| 1778101807 | 7.22° C | 77% | 1010.3 hPa | 0 mm | - | 36 W/m² | - |
| 1778101503 | 7.22° C | 78% | 1010.2 hPa | 0 mm | - | 42 W/m² | - |
| 1778101200 | 7.22° C | 78% | 1010.3 hPa | 0 mm | - | 42 W/m² | - |
| 1778100896 | 7.22° C | 79% | 1010.5 hPa | 0 mm | - | 51 W/m² | - |
| 1778100592 | 7.22° C | 81% | 1010.4 hPa | 0 mm | - | 62 W/m² | - |
| 1778100290 | 7.22° C | 81% | 1010.3 hPa | 0 mm | - | 68 W/m² | - |
| 1778099987 | 6.67° C | 82% | 1010.4 hPa | 0 mm | - | 68 W/m² | - |
| 1778099684 | 7.22° C | 83% | 1010.5 hPa | 0 mm | - | 65 W/m² | - |
| 1778099381 | 7.22° C | 84% | 1010.6 hPa | 0 mm | - | 75 W/m² | - |
| 1778099078 | 7.22° C | 84% | 1010.7 hPa | 0 mm | - | 54 W/m² | - |
| 1778098775 | 7.22° C | 84% | 1010.7 hPa | 0 mm | - | 66 W/m² | - |
| 1778098472 | 7.22° C | 84% | 1010.6 hPa | 0 mm | - | 74 W/m² | - |
| 1778098169 | 7.22° C | 84% | 1010.4 hPa | 0 mm | - | 63 W/m² | - |
| 1778097865 | 7.78° C | 84% | 1010.5 hPa | 0 mm | - | 46 W/m² | - |
| 1778097562 | 7.78° C | 84% | 1010.3 hPa | 0 mm | - | 51 W/m² | - |
| 1778097259 | 7.22° C | 83% | 1010.5 hPa | 0 mm | - | 80 W/m² | - |
| 1778096955 | 7.78° C | 83% | 1010.5 hPa | 0 mm | - | 91 W/m² | - |
| 1778096653 | 7.78° C | 82% | 1010.5 hPa | 0 mm | - | 131 W/m² | - |
| 1778096349 | 7.78° C | 82% | 1010.6 hPa | 0 mm | - | 162 W/m² | - |
* Rain latest hour (hover to see other rain measurements)
** Current wind speed in m/s (hover to see current wind gust speed)